Location: *
(41.7492°S, 135.4150°W)
Time: 18:56:51
(UTC+00:00)

Cosmos 1092 Rocket - Pass Details

Date: 20 September 2021
Orbit: 953 x 996 km, 83.0° (Epoch: 16 October)

Event Time Altitude Azimuth Distance (km) Brightness Sun altitude
Exits shadow 12:24:29 70° 255° (WSW) 1,040 3.9 -27.8°
Drops below altitude 10° 12:30:44 10° 177° (S) 2,764 6.7 -26.7°
Sets 12:33:19 0° 174° (S) 3,725 7.4 -26.3°
